Regional Weather Roundup
Issued by NWS

Home | Current Version | Previous Version | Graphics & Text | Print | Product List | Glossary On
Versions: 1 2 3 4 5 6 7 8 9 10 11 12 13 14 15 16 17 18 19 20 21 22 23 24 25 26 27 28 29 30 31 32 33 34 35 36 37 38 39 40 41 42 43 44 45 46 47 48 49 50
000
ASUS43 KMKX 261800
RWRWI

WISCONSIN REGIONAL WEATHER ROUNDUP
NATIONAL WEATHER SERVICE MILWAUKEE/SULLIVAN WI
100 PM CDT MON SEP 26 2016

NOTE: "FAIR" INDICATES FEW OR NO CLOUDS BELOW 12,000 FEET WITH NO
SIGNIFICANT WEATHER AND/OR OBSTRUCTIONS TO VISIBILITY.

WIZ001-002-006>008-014>016-023>028-261900-
NORTHWEST WISCONSIN

CITY           SKY/WX    TMP DP  RH WIND       PRES   REMARKS
SUPERIOR ARPT  CLOUDY    56  46  71 W20G29    29.75R
ASHLAND        LGT RAIN  52  48  86 W16G23    29.71R
6HR MIN TEMP:  50; 6HR MAX TEMP:  52; 6HR PCP:  0.16;

HAYWARD        LGT RAIN  54  41  61 W14G23    29.77S
6HR MIN TEMP:  49; 6HR MAX TEMP:  55; 6HR PCP: TRACE;

SIREN          CLOUDY    56  40  54 W23G33    29.83S
CUMBERLAND     CLOUDY    54  37  54 W25G33    29.84R
RICE LAKE      CLOUDY    58  38  46 W20G30    29.85S
CHETEK         NOT AVBL
LADYSMITH      MOSUNNY   57  41  53 W18G32    29.81S
EAU CLAIRE     NOT AVBL
MENOMONIE      MOSUNNY   60  38  43 W24G35    29.87R
6HR MIN TEMP:  51; 6HR MAX TEMP:  62;

NEW RICHMOND   PTSUNNY   59  38  46 W23G36    29.89S
OSCEOLA        CLOUDY    60  40  46 W23G29    29.91F
$$

WIZ003>005-009-010-017-018-261900-
NORTH CENTRAL WISCONSIN

CITY           SKY/WX    TMP DP  RH WIND       PRES   REMARKS
MANITOWISH WTR NOT AVBL
ARBOR VITAE    CLOUDY    52  44  75 W14G25    29.71S
WOODRUFF       CLOUDY    52  44  75 W14G25    29.71S
RHINELANDER    CLOUDY    54  42  64 W25G43    29.73S
6HR MIN TEMP:  48; 6HR MAX TEMP:  55; 6HR PCP: TRACE;

EAGLE RIVER    CLOUDY    49  46  89 W13G25    29.70R
LAND O LAKES   LGT RAIN  49  46  92 W12G20    29.70R
6HR MIN TEMP:  48; 6HR MAX TEMP:  49;

PHILLIPS       CLOUDY    53  40  62 W14G25    29.75S
6HR MIN TEMP:  47; 6HR MAX TEMP:  53; 6HR PCP:  0.01;

TOMAHAWK       PTSUNNY   55  39  55 W16G29    29.75F
6HR MIN TEMP:  47; 6HR MAX TEMP:  55;

MEDFORD        CLOUDY    57  39  51 W22G30    29.79S
MERRILL        CLOUDY    55  41  58 NW14G24   29.77S
6HR MIN TEMP:  50; 6HR MAX TEMP:  57;

$$

WIZ029-030-035-036-043>047-261900-
CENTRAL WISCONSIN

CITY           SKY/WX    TMP DP  RH WIND       PRES   REMARKS
WAUSAU         CLOUDY    58  39  49 W20G32    29.77S
6HR MIN TEMP:  51; 6HR MAX TEMP:  59;

MOSINEE        CLOUDY    59  37  44 W29G36    29.80F
MARSHFIELD     CLOUDY    59  37  44 W21G32    29.81F
6HR MIN TEMP:  50; 6HR MAX TEMP:  62;

STEVENS POINT  CLOUDY    57  37  46 W16G30    29.82S
WAUPACA        MOSUNNY   64  38  38 W22G33    29.82R
6HR MIN TEMP:  55; 6HR MAX TEMP:  64;

WAUTOMA        CLOUDY    62  38  40 W25G33    29.84F
6HR MIN TEMP:  51; 6HR MAX TEMP:  63;

WISC RAPIDS    PTSUNNY   62  38  40 NW16G30   29.84F
6HR MIN TEMP:  50; 6HR MAX TEMP:  63;

CAMP DOUGLAS   NOT AVBL
$$

WIZ011>013-019>022-031-037>040-048>050-261900-
NORTHEAST WISCONSIN

CITY           SKY/WX    TMP DP  RH WIND       PRES   REMARKS
ANTIGO         CLOUDY    53  41  65 W17G31    29.76S
SHAWANO        CLOUDY    61  42  49 W17G29    29.77R
OCONTO         NOT AVBL
STURGEON BAY   CLOUDY    60  46  59 W15G23    29.75F
6HR MIN TEMP:  53; 6HR MAX TEMP:  60;

GREEN BAY      MOSUNNY   63  42  46 W20G32    29.78S
6HR MIN TEMP:  52; 6HR MAX TEMP:  63; 6HR PCP: TRACE;

MANITOWOC      NOT AVBL
APPLETON       PTSUNNY   61  36  39 W25G35    29.80S
CLINTONVILLE   NOT AVBL
OSHKOSH        PTSUNNY   62  38  40 W16G28    29.82S
6HR MIN TEMP:  53; 6HR MAX TEMP:  63; 6HR PCP: TRACE;

$$

WIZ032>034-041-042-053>061-261900-
SOUTHWEST WISCONSIN

CITY           SKY/WX    TMP DP  RH WIND       PRES   REMARKS
LA CROSSE      MOSUNNY   68  38  33 W20G40    29.90F
6HR MIN TEMP:  54; 6HR MAX TEMP:  68; 6HR PCP: TRACE;

SPARTA         MOSUNNY   62  37  39 W22G29    29.90F
VIROQUA        MOSUNNY   64  33  31 W21G29    29.93F
6HR MIN TEMP:  47; 6HR MAX TEMP:  64;

BOSCOBEL       SUNNY     67  37  33 W16G32    29.96F
6HR MIN TEMP:  51; 6HR MAX TEMP:  67;

PRAIRIE DU CHI SUNNY     67  32  27 W16G26    29.97F
6HR MIN TEMP:  51; 6HR MAX TEMP:  67;

PLATTEVILLE    SUNNY     65  39  39 W18G31    29.99F
$$

WIZ056-057-062-063-064-067-068-261900-
SOUTH CENTRAL WISCONSIN

CITY           SKY/WX    TMP DP  RH WIND       PRES   REMARKS
REEDSBURG      NOT AVBL
BARABOO/DELLS  PTSUNNY   62  34  35 W22       29.90F
LONE ROCK      NOT AVBL
MINERAL POINT  SUNNY     64  34  32 W17G30    29.97S
MADISON        PTSUNNY   62  39  42 VRB7G22   29.91F
6HR MIN TEMP:  53; 6HR MAX TEMP:  63;

MIDDLETON      NOT AVBL
WATERTOWN      PTSUNNY   63  42  45 W21       29.90F
MONROE         SUNNY     63  34  34 W20G32    29.96F
JANESVILLE     MOSUNNY   66  37  34 W23G32    29.94F
$$

WIZ051-052-058>065-066-070>072-261900-
SOUTHEAST WISCONSIN

CITY           SKY/WX    TMP DP  RH WIND       PRES   REMARKS
MILWAUKEE      MOSUNNY   66  39  37 W21G31    29.90F
6HR MIN TEMP:  57; 6HR MAX TEMP:  66;

WAUKESHA       PTSUNNY   63  39  42 W16G31    29.91S
MILWAUKEE/TIMM PTSUNNY   64  36  34 W16G31    29.89F
RACINE         MOSUNNY   65  38  36 W20G30    29.92F
6HR MIN TEMP:  56; 6HR MAX TEMP:  66;

BURLINGTON     MOSUNNY   63  38  38 W18G30    29.93S
KENOSHA        SUNNY     66  40  38 W23G35    29.92F
6HR MIN TEMP:  55; 6HR MAX TEMP:  66;

FOND DU LAC    PTSUNNY   63  39  41 W22G33    29.85S
6HR MIN TEMP:  53; 6HR MAX TEMP:  63;

SHEBOYGAN      PTSUNNY   62  37  39 W21G31    29.84S
6HR MIN TEMP:  54; 6HR MAX TEMP:  64;

WEST BEND      PTSUNNY   63  36  36 W24G35    29.87S
JUNEAU         CLOUDY    61  38  43 W20G32    29.90S
$$

LSZ147-162-261900-
LAKE SUPERIOR

STATION/POSITION TIME  TEMP    WIND        PRES    WAVE
                       AIR SEA DIR/SP/G            HT/PER
                 (UTC) (F)     (DEG/KT/KT) (MB)    (FT/S)
W MID LAKE BUOY  1650   54 54  250/ 29/ 39  999.8F   7/ 6
DEVILS ISLAND    1700   53     260/ 30/ 36 1003.6R
SAXON HARBOR     1700   52     230/  7/ 12 1005.4
$$

LMZ867-665-643>646-261900-
LAKE MICHIGAN

STATION/POSITION TIME  TEMP    WIND        PRES    WAVE
                       AIR SEA DIR/SP/G            HT/PER
                 (UTC) (F)     (DEG/KT/KT) (MB)    (FT/S)
CHAMBERS ISLAND  1700   57     220/ 12/ 24 1006.4S
N MID LAKE BUOY  1650   58 67  250/ 25/ 31 1005.0F   6/ 7
NORTHPORT PIER   1700   57     250/  6/ 19 1006.4S
KEWAUNEE LAKESHO 1700   60     270/ 13/ 23 1008.0F
SHEBOYGAN LAKESH 1700   62     250/ 21/ 27 1009.6F
PORT WASHINGTON  1700   65     270/ 15     1011.9
ATWATER BUOY     1700   62 55  240/ 17/ 23 1012.0F
MILWAUKEE LAKESH 1710   63     280/ 17/ 23   N/A
S MID LAKE BUOY  1650   62 71  250/ 21/ 25 1012.5F   5/ 5
KENOSHA   LAKESH 1700   64     260/ 20/ 29 1013.2F
$$

TC  - TEMPERATURE IN CELSIUS
VSB - VISIBILITY IN STATUTE MILES
WCI - WIND CHILL INDEX
HX  - HEAT INDEX




USA.gov is the U.S. government's official web portal to all federal, state and local government web resources and services.